Regional Weather Roundup
Issued by NWS Goodland, KS

Home | Current Version | Previous Version | Graphics & Text | Print | Product List | Glossary On
Versions: 1 2 3 4 5 6 7 8 9 10 11 12 13 14 15 16 17 18 19 20 21 22 23 24 25 26 27 28 29 30 31 32 33 34 35 36 37 38 39 40 41 42 43 44 45 46 47 48 49 50
000
ASUS43 KGLD 170259
RWRGLD

GOODLAND FORECAST AREA HOURLY WEATHER ROUNDUP
NATIONAL WEATHER SERVICE GOODLAND KS
900 PM MDT TUE SEP 16 2014

...OFFICIAL OBSERVATIONS...

CITY           SKY/WX    TMP DP  RH WIND       PRES   REMARKS
GOODLAND KS    CLEAR     67  50  54 E5        30.03S
HILL CITY KS   CLEAR     65  60  84 E7        29.97R
IMPERIAL NEB   CLEAR     59  53  80 SE9       29.99F
MCCOOK NEB     CLEAR     64  59  83 E9        29.98R
AKRON CO       CLEAR     65  43  44 SE9       30.08R
BURLINGTON CO  CLEAR     64  47  53 SE6       30.07R
LIMON CO       PTCLDY    66  39  37 E8        30.15R
$$

...UNOFFICIAL OBSERVATIONS...

CITY           SKY/WX    TMP DP  RH WIND       PRES   REMARKS
COLBY KS       CLEAR     68  59  73 S7        30.00F
GOVE KS          N/A     70  32  24 MISG        N/A
NORTON KS      CLEAR     61  54  77 E5        29.98R
SHARON SPRINGS   N/A     69  55  62 CALM        N/A
WAKEENEY KS      N/A     67  59  77 MISG        N/A
TRENTON NEB      N/A     65  32  29 E10         N/A
YUMA CO          N/A     66  46  49 CALM        N/A
$$



USA.gov is the U.S. government's official web portal to all federal, state and local government web resources and services.